Tracking 19192 objects as of 20-Jun-2018
HD Live streaming from Space Station
objects crossing your sky now

OPS 7202 (DMSP 4A F3)

Track OPS 7202 (DMSP 4A F3) now!
10-day predictions
OPS 7202 (DMSP 4A F3) is classified as:


NORAD ID: 2920
Int'l Code: 1967-080A
Perigee: 822.3 km
Apogee: 878.7 km
Inclination: 99.0 °
Period: 101.8 minutes
Semi major axis: 7221 km
RCS: 0.6463 m2 (medium)
Launch date: August 23, 1967
Source: United States (US)
Launch site: AIR FORCE WESTERN TEST RANGE (AFWTR)
aabbcc
Your satellite tracking list
Your tracking list is empty




NASA's NSSDC Master Catalog

Two Line Element Set (TLE):
1  2920U 67080A   18170.54278466 -.00000022 +00000-0 +11759-4 0  9995
2  2920 098.9852 024.4992 0039020 040.8813 319.5275 14.14697649619834
Source of the keplerian elements: AFSPC